Location: ????????
(55.4000°N, 39.1167°E)
Time: 02:31:19
(UTC+00:00)

USA 59 Rocket - Pass Details

Date: 19 May 2025
Orbit: 374 x 1696 km, 63.3° (Epoch: 13 June)

Event Time Altitude Azimuth Distance (km) Brightness Sun altitude
Exits shadow 22:07:20 - 258° (WSW) 1,785 2.2 -14.0°
Reaches altitude 10° 22:08:12 10° 263° (W) 1,425 1.8 -13.9°
Maximum altitude 22:11:01 36° 333° (NNW) 624 0.6 -13.8°
Drops below altitude 10° 22:13:50 10° 43° (NE) 1,416 2.9 -13.8°
Sets 22:16:01 0° 52° (NE) 2,336 3.9 -13.7°
